This is the latest recevied weather packets stored in our database for station/object K5VP. If no packets are shown the sender has not sent any weather packets the latest 1 day(s).
| Time | Temp. | Humidity | Pressure | Rain* | Wind** | Luminosity | Snow |
|---|---|---|---|---|---|---|---|
| 1778054889 | 11.11° C | 95% | 1011 hPa | 1.78 mm | 0 m/s | - | - |
| 1778054515 | 11.11° C | 95% | 1010.8 hPa | 0 mm | 0 m/s | - | - |
| 1778054136 | 11.11° C | 95% | 1010.8 hPa | 0 mm | 0 m/s | - | - |
| 1778053769 | 11.11° C | 95% | 1010.7 hPa | 0 mm | 0 m/s | - | - |
| 1778053390 | 11.11° C | 95% | 1010.5 hPa | 0 mm | 0 m/s | - | - |
| 1778053017 | 11.11° C | 94% | 1010.6 hPa | 0 mm | 0 m/s | - | - |
| 1778052634 | 11.11° C | 94% | 1010.5 hPa | 1.27 mm | 0 m/s | - | - |
| 1778052244 | 11.11° C | 94% | 1010.6 hPa | 2.79 mm | 0 m/s | - | - |
| 1778051853 | 11.11° C | 94% | 1010.6 hPa | 24.38 mm | 0 m/s | - | - |
| 1778051459 | 11.11° C | 94% | 1010 hPa | 1.02 mm | 0 m/s | - | - |
| 1778051080 | 11.11° C | 94% | 1009.4 hPa | 1.27 mm | 0 m/s | - | - |
| 1778050690 | 11.11° C | 94% | 1009.7 hPa | 2.79 mm | 0 m/s | - | - |
| 1778050316 | 11.67° C | 94% | 1010.2 hPa | 0 mm | 0 m/s | - | - |
| 1778049930 | 11.67° C | 94% | 1009.5 hPa | 0 mm | 0 m/s | - | - |
| 1778049466 | 11.67° C | 93% | 1009.6 hPa | 0 mm | 0.45 m/s, 128° | - | - |
| 1778049097 | 11.67° C | 93% | 1009.4 hPa | 0 mm | 0 m/s | - | - |
| 1778048709 | 12.22° C | 93% | 1009.4 hPa | 0 mm | 0 m/s | - | - |
| 1778048340 | 12.22° C | 93% | 1009.1 hPa | 0 mm | 0 m/s | - | - |
| 1778047944 | 12.78° C | 93% | 1009.1 hPa | 0 mm | 0 m/s | - | - |
| 1778047548 | 12.78° C | 93% | 1008.7 hPa | 0 mm | 0.45 m/s, 64° | - | - |
| 1778047151 | 13.33° C | 93% | 1008.4 hPa | 0 mm | 0.45 m/s, 88° | - | - |
| 1778046756 | 13.89° C | 93% | 1008.4 hPa | 0 mm | 0 m/s | - | - |
| 1778046386 | 13.89° C | 92% | 1008.5 hPa | 0 mm | 0.45 m/s, 114° | - | - |
| 1778045992 | 14.44° C | 91% | 1008.6 hPa | 0 mm | 0 m/s | - | - |
| 1778045605 | 15° C | 92% | 1008.7 hPa | 0 mm | 0 m/s | - | - |
* Rain latest hour (hover to see other rain measurements)
** Current wind speed in m/s (hover to see current wind gust speed)